Belichi, Ukraine

5:47 AM EEST on September 20, 2017 (GMT +0300)
Belichi

Weather History for 33345 - November, 2013

Change the Weather History Date:

Monday, November 11, 2013

  Actual Average Record
Temperature  
Mean Temperature 50 °F -  
Max Temperature 53 °F - - ()
Min Temperature 48 °F - - ()
Degree Days  
Heating Degree Days 14    
Moisture  
Dew Point 49 °F    
Average Humidity 91    
Maximum Humidity 100    
Minimum Humidity 80    
Precipitation  
Precipitation 0.00 in 0.07 in - ()
Sea Level Pressure  
Sea Level Pressure 30.11 in    
Wind  
Wind Speed 3 mph ()    
Max Wind Speed 7 mph    
Max Gust Speed -    
Visibility 5.0 miles    
Events Rain    
T = Trace of Precipitation, MM = Missing Value Source: Averaged Metar Reports

Daily Weather History Graph

Daily Weather History Graph

Search for Another Location

Airport or City:

Trip Planner

Search our weather history database for the weather conditions in past years. The results will help you decide how hot, cold, wet, or windy it might be!

Date:

Astronomy

Nov. 11, 2013 Rise Set
Actual Time 7:05 AM EET 4:17 PM EET
Civil Twilight 6:29 AM EET 4:53 PM EET
Nautical Twilight 5:50 AM EET 5:32 PM EET
Astronomical Twilight 5:12 AM EET 6:10 PM EET
Moon 1:22 PM EET (11/11) No Moon Set
Length of Visible Light 10h 23m
Length of Day
9h 12m
Waxing Gibbous, 63% of the Moon is Illuminated
Nov 11
Waxing Gibbous
Nov 17
Full
Nov 25
Last Quarter
Dec 3
New
Dec 9
First Quarter

Hourly Weather History & Observations

Time (EET) Temp. Dew Point Humidity Pressure Visibility Wind Dir Wind Speed Gust Speed Precip Events Conditions
12:00 AM 50.0 °F 46.4 °F 87% 29.92 in 6.2 mi SSE 4.5 mph - N/A   Mostly Cloudy
12:30 AM 50.0 °F 46.4 °F 87% 29.92 in 6.2 mi SSE 4.5 mph - N/A   Mostly Cloudy
1:00 AM 50.0 °F 46.4 °F 87% 29.92 in 6.2 mi Variable 2.2 mph - N/A   Mostly Cloudy
1:30 AM 50.0 °F 46.4 °F 87% 29.95 in 6.2 mi SSE 4.5 mph - N/A   Mostly Cloudy
2:00 AM 49 °F 45 °F 83% 29.96 in 6 mi SSE 4.5 mph - -   Mostly Cloudy
2:00 AM 50.0 °F 46.4 °F 87% 29.95 in 6.2 mi Variable 2.2 mph - N/A   Mostly Cloudy
2:30 AM 50.0 °F 46.4 °F 87% 29.95 in 6.2 mi Variable 2.2 mph - N/A   Mostly Cloudy
3:00 AM 50.0 °F 48.2 °F 94% 29.95 in 6.2 mi Variable 2.2 mph - N/A   Overcast
3:30 AM 50.0 °F 48.2 °F 94% 29.98 in 6.2 mi Variable 2.2 mph - N/A   Overcast
4:00 AM 50.0 °F 48.2 °F 94% 29.98 in 6.2 mi Variable 2.2 mph - N/A   Overcast
4:30 AM 50.0 °F 48.2 °F 94% 29.98 in 6.2 mi Calm Calm - N/A   Overcast
5:00 AM 49 °F 46 °F 86% 30.01 in 6 mi Calm Calm - -   Overcast
5:00 AM 50.0 °F 48.2 °F 94% 29.98 in 6.2 mi Calm Calm - N/A   Overcast
5:30 AM 50.0 °F 48.2 °F 94% 30.01 in 6.2 mi Calm Calm - N/A   Overcast
6:00 AM 50.0 °F 48.2 °F 94% 30.01 in 6.2 mi Variable 2.2 mph - N/A   Overcast
6:30 AM 50.0 °F 48.2 °F 94% 30.01 in 6.2 mi Variable 2.2 mph - N/A   Overcast
7:00 AM 50.0 °F 48.2 °F 94% 30.04 in 6.2 mi East 2.2 mph - N/A   Overcast
7:30 AM 50.0 °F 48.2 °F 94% 30.04 in 6.2 mi East 4.5 mph - N/A   Overcast
8:00 AM 50 °F 47 °F 87% 30.07 in 2 mi Calm Calm - -   Mist
8:00 AM 50.0 °F 48.2 °F 94% 30.04 in 6.2 mi SE 2.2 mph - N/A   Overcast
8:30 AM 51.8 °F 48.2 °F 88% 30.06 in 6.2 mi Variable 2.2 mph - N/A   Overcast
9:00 AM 51.8 °F 48.2 °F 88% 30.06 in 6.2 mi Variable 2.2 mph - N/A   Overcast
9:30 AM 51.8 °F 48.2 °F 88% 30.06 in 6.2 mi SE 4.5 mph - N/A   Overcast
10:00 AM 51.8 °F 48.2 °F 88% 30.09 in 6.2 mi ESE 4.5 mph - N/A   Overcast
10:30 AM 51.8 °F 48.2 °F 88% 30.09 in 6.2 mi Variable 2.2 mph - N/A   Overcast
11:00 AM 52 °F 48 °F 83% 30.12 in 6 mi Calm Calm - -   Overcast
11:00 AM 51.8 °F 48.2 °F 88% 30.09 in 6.2 mi Variable 2.2 mph - N/A   Overcast
11:30 AM 51.8 °F 48.2 °F 88% 30.12 in 6.2 mi Calm Calm - N/A   Overcast
12:00 PM 51.8 °F 50.0 °F 94% 30.12 in 6.2 mi ENE 2.2 mph - N/A   Overcast
12:30 PM 53.6 °F 50.0 °F 88% 30.12 in 6.2 mi Variable 2.2 mph - N/A   Overcast
1:00 PM 53.6 °F 48.2 °F 82% 30.12 in 6.2 mi Calm Calm - N/A   Overcast
1:30 PM 53.6 °F 50.0 °F 88% 30.12 in 6.2 mi Calm Calm - N/A   Overcast
2:00 PM 53 °F 49 °F 80% 30.16 in 6 mi ESE 2.2 mph - -   Overcast
2:00 PM 53.6 °F 48.2 °F 82% 30.15 in 6.2 mi Calm Calm - N/A   Overcast
2:30 PM 53.6 °F 48.2 °F 82% 30.15 in 6.2 mi Calm Calm - N/A   Overcast
3:00 PM 53.6 °F 48.2 °F 82% 30.15 in 6.2 mi Calm Calm - N/A   Overcast
3:30 PM 53.6 °F 48.2 °F 82% 30.15 in 6.2 mi Variable 2.2 mph - N/A   Overcast
4:00 PM 53.6 °F 48.2 °F 82% 30.18 in 6.2 mi NNE 4.5 mph - N/A   Overcast
4:30 PM 51.8 °F 50.0 °F 94% 30.18 in 5.6 mi NNE 6.7 mph - N/A   Overcast
5:00 PM 53 °F 49 °F 80% 30.20 in 6 mi NNE 4.5 mph - -   Overcast
5:00 PM 51.8 °F 50.0 °F 94% 30.18 in 3.1 mi NNE 4.5 mph - N/A   Overcast
5:30 PM 51.8 °F 50.0 °F 94% 30.21 in 1.6 mi NE 4.5 mph - N/A   Light Drizzle
5:48 PM 51.8 °F 50.0 °F 94% 30.21 in 1.4 mi ENE 2.2 mph - N/A   Light Drizzle
6:00 PM 51.8 °F 50.0 °F 94% 30.21 in 1.2 mi NNE 4.5 mph - N/A   Light Drizzle
6:12 PM 51.8 °F 50.0 °F 94% 30.21 in 1.4 mi North 4.5 mph - N/A   Light Drizzle
6:30 PM 51.8 °F 50.0 °F 94% 30.21 in - North 2.2 mph - N/A   Light Drizzle
7:00 PM 51.8 °F 50.0 °F 94% 30.21 in 1.7 mi Variable 2.2 mph - N/A   Light Drizzle
7:30 PM 51.8 °F 50.0 °F 94% 30.24 in - Calm Calm - N/A   Light Drizzle
7:37 PM 51.8 °F 50.0 °F 94% 30.24 in - North 2.2 mph - N/A   Light Drizzle
8:00 PM 51 °F 50 °F 93% 30.25 in 2 mi NE 2.2 mph - -   Mist
8:00 PM 50.0 °F 50.0 °F 100% 30.24 in 1.3 mi North 4.5 mph - N/A   Light Drizzle
8:30 PM 50.0 °F 50.0 °F 100% 30.24 in 1.3 mi North 6.7 mph - N/A   Light Drizzle
9:00 PM 50.0 °F 50.0 °F 100% 30.24 in 1.7 mi North 6.7 mph - N/A   Light Drizzle
9:30 PM 50.0 °F 50.0 °F 100% 30.27 in - North 4.5 mph - N/A   Light Drizzle
10:00 PM 50.0 °F 50.0 °F 100% 30.27 in 1.6 mi North 6.7 mph - N/A   Light Drizzle
10:30 PM 50.0 °F 48.2 °F 94% 30.27 in - North 6.7 mph - N/A   Light Drizzle
11:00 PM 49 °F 48 °F 94% 30.30 in 2 mi North 4.5 mph - - Rain Light Rain
11:00 PM 48.2 °F 48.2 °F 100% 30.27 in - North 6.7 mph - N/A   Light Drizzle
11:30 PM 48.2 °F 48.2 °F 100% 30.27 in - North 6.7 mph - N/A Rain Light Rain